Location: Grand Rapids
(42.9630°N, 85.6680°W)
Time: 02:37:12
(UTC-04:00)

Transit 4A - All Passes

Search period start: 30 May 2024 00:00
Search period end: 09 June 2024 00:00
Orbit: 871 x 971 km, 66.8° (Epoch: 29 May)

Date Brightness Start Highest point End Pass type
(mag) Time Alt. Az. Time Alt. Az. Time Alt. Az.
30 May - 04:34:15 10° S 04:39:46 43° ESE 04:45:14 10° NE visible
30 May - 06:20:51 10° WSW 06:26:10 35° NW 06:31:27 10° NNE daylight
30 May - 11:50:39 10° N 11:53:34 14° NNE 11:56:29 10° ENE daylight
30 May - 13:35:26 10° NNW 13:41:13 56° NE 13:47:06 10° SE daylight
30 May - 15:22:28 10° NW 15:27:09 25° WSW 15:31:54 10° SSW daylight
31 May - 04:42:52 10° SSW 04:48:41 63° ESE 04:54:26 10° NE visible
31 May - 06:30:39 10° W 06:35:26 26° NW 06:40:14 10° NNE daylight
31 May - 11:59:07 10° N 12:03:03 18° NE 12:07:01 10° E daylight
31 May - 13:44:23 10° NNW 13:50:18 80° ENE 13:56:19 10° SSE daylight
31 May - 15:32:22 10° WNW 15:35:55 16° WSW 15:39:29 10° SW daylight
01 Jun - 03:09:19 10° SE 03:12:11 14° ESE 03:15:02 10° ENE visible
01 Jun - 04:51:46 10° SSW 04:57:40 89° WNW 05:03:32 10° NNE visible
01 Jun - 06:40:43 10° W 06:44:49 19° NW 06:48:55 10° N daylight
01 Jun - 12:07:46 10° N 12:12:27 24° NE 12:17:10 10° E daylight
01 Jun - 13:53:27 10° NW 13:59:19 72° WSW 14:05:18 10° SSE daylight
02 Jun - 03:16:36 10° SSE 03:20:55 22° ESE 03:25:13 10° ENE visible
02 Jun - 05:00:55 10° SW 05:06:43 62° WNW 05:12:31 10° NNE visible
02 Jun - 06:51:06 10° WNW 06:54:16 15° NW 06:57:27 10° N daylight
02 Jun - 12:16:31 10° NNW 12:21:45 32° NE 12:27:03 10° ESE daylight
02 Jun - 14:02:36 10° NW 14:08:16 48° WSW 14:14:00 10° S daylight
03 Jun - 03:24:35 10° S 03:29:43 32° ESE 03:34:49 10° NE visible
03 Jun - 05:10:18 10° WSW 05:15:52 44° NW 05:21:26 10° NNE visible
03 Jun - 07:02:04 10° NW 07:03:49 11° NNW 07:05:35 10° N daylight
03 Jun - 10:41:07 10° N 10:43:02 11° NNE 10:44:58 10° NE daylight
03 Jun - 12:25:21 10° NNW 12:30:59 44° NE 12:36:40 10° ESE daylight
03 Jun - 14:11:56 10° NW 14:17:08 33° WSW 14:22:25 10° S daylight
04 Jun - 03:32:59 10° S 03:38:35 48° ESE 03:44:09 10° NE visible
04 Jun - 05:19:56 10° WSW 05:25:05 31° NW 05:30:15 10° NNE visible
04 Jun - 10:49:18 10° N 10:52:34 15° NE 10:55:52 10° ENE daylight
04 Jun - 12:34:16 10° NNW 12:40:07 63° NE 12:46:04 10° SE daylight
04 Jun - 14:21:31 10° WNW 14:25:56 22° WSW 14:30:25 10° SSW daylight
05 Jun - 03:41:41 10° SSW 03:47:31 71° ESE 03:53:20 10° NE visible
05 Jun - 05:29:48 10° W 05:34:24 23° NW 05:39:00 10° N visible
05 Jun - 10:57:51 10° N 11:02:02 20° NE 11:06:16 10° E daylight
05 Jun - 12:43:15 10° NNW 12:49:10 89° ENE 12:55:13 10° SSE daylight
05 Jun - 14:31:40 10° WNW 14:34:41 14° WSW 14:37:44 10° SW daylight
06 Jun - 02:07:32 10° SE 02:10:57 16° ESE 02:14:20 10° ENE visible
06 Jun - 03:50:39 10° SSW 03:56:32 80° WNW 04:02:23 10° NNE visible
06 Jun - 05:39:57 10° W 05:43:47 18° NW 05:47:39 10° N daylight
06 Jun - 11:06:31 10° NNW 11:11:24 26° NE 11:16:20 10° E daylight
06 Jun - 12:52:19 10° NW 12:58:10 64° WSW 13:04:07 10° SSE daylight
07 Jun - 02:15:06 10° SSE 02:19:42 24° ESE 02:24:16 10° NE visible
07 Jun - 03:59:52 10° SW 04:05:37 56° NW 04:11:21 10° NNE visible
07 Jun - 05:50:28 10° WNW 05:53:17 14° NNW 05:56:06 10° N daylight
07 Jun - 11:15:18 10° NNW 11:20:41 35° NE 11:26:08 10° ESE daylight
07 Jun - 13:01:32 10° NW 13:07:05 43° WSW 13:12:44 10° S daylight
08 Jun - 02:23:13 10° S 02:28:31 36° ESE 02:33:47 10° NE visible
08 Jun - 04:09:19 10° WSW 04:14:46 39° NW 04:20:14 10° NNE visible
08 Jun - 06:01:50 10° NW 06:02:51 10° NNW 06:03:52 10° NNW daylight
08 Jun - 09:39:38 10° N 09:42:04 12° NNE 09:44:30 10° NE daylight
08 Jun - 11:24:10 10° NNW 11:29:52 49° NE 11:35:41 10° SE daylight
08 Jun - 13:10:55 10° NW 13:15:56 29° WSW 13:21:02 10° SSW daylight
